Location: Cruquius
(52.3348°N, 4.6319°E)
Time: 06:42:08
(UTC+00:00)

USA 307 - Pass Details

Date: 12 May 2021
Orbit: 566 x 577 km, 54.0° (Epoch: 10 May)

Event Time Altitude Azimuth Distance (km) Brightness Sun altitude
Rises 21:08:25 0° 290° (WNW) 2,778 7.4 -12.2°
Reaches altitude 10° 21:10:48 10° 282° (WNW) 1,879 6.3 -12.4°
Maximum altitude 21:14:42 35° 216° (SW) 931 3.8 -12.8°
Enters shadow 21:17:05 20° 162° (SSE) 1,366 4.2 -13.0°
